Change the Weather History Date:

Monday, August 5, 2013

  Actual Average Record
Temperature  
Mean Temperature 76 °F 81 °F  
Max Temperature 85 °F 91 °F 103 °F (1947)
Min Temperature 67 °F 70 °F 53 °F (1929)
Degree Days  
Heating Degree Days 0 0  
Month to date heating degree days 0 0  
Since 1 June heating degree days 0 1  
Since 1 July heating degree days 0 0  
Cooling Degree Days 11 16  
Month to date cooling degree days 62 80  
Year to date cooling degree days 1140 1205  
Since 1 June cooling degree days 907 942  
Growing Degree Days 25 (Base 50)    
Moisture  
Dew Point 66 °F    
Average Humidity 71    
Maximum Humidity 90    
Minimum Humidity 51    
Precipitation  
Precipitation T in 0.13 in 1.69 in (1952)
Month to date precipitation T 0.63  
Year to date precipitation 41.81 33.34  
Snow  
Snow 0.00 in - - ()
Month to date snowfall 0.0  
Since 1 June snowfall 0.0  
Since 1 July snowfall 0.0  
Snow Depth 0.00 in    
Sea Level Pressure  
Sea Level Pressure 30.03 in    
Wind  
Wind Speed 2 mph (North)    
Max Wind Speed 9 mph    
Max Gust Speed -    
Visibility 10 miles    
Events      
T = Trace of Precipitation, MM = Missing Value Source: NWS Daily Summary

Daily Weather History Graph

Daily Weather History Graph

Search for Another Location

Airport or City:

Trip Planner

Search our weather history database for the weather conditions in past years. The results will help you decide how hot, cold, wet, or windy it might be!

Date:

Astronomy

Aug. 05, 2013 Rise Set
Actual Time 6:00 AM CDT 7:45 PM CDT
Civil Twilight 5:33 AM CDT 8:12 PM CDT
Nautical Twilight 5:00 AM CDT 8:45 PM CDT
Astronomical Twilight 4:25 AM CDT 9:20 PM CDT
Moon 4:54 AM CDT (8/5) 6:47 PM CDT (8/5)
Length of Visible Light 14h 39m
Length of Day
13h 44m
Waning Crescent, 1% of the Moon is Illuminated
Aug 5
Waning Crescent
Aug 6
New
Aug 14
First Quarter
Aug 20
Full
Aug 28
Last Quarter

Hourly Weather History & Observations

Time (CDT) Temp. Heat Index Dew Point Humidity Pressure Visibility Wind Dir Wind Speed Gust Speed Precip Events Conditions
12:53 AM 72.0 °F - 63.0 °F 73% 30.05 in 10.0 mi NE 5.8 mph - N/A   Clear
1:53 AM 69.1 °F - 64.0 °F 84% 30.03 in 10.0 mi North 3.5 mph - N/A   Clear
2:53 AM 69.1 °F - 64.0 °F 84% 30.03 in 10.0 mi NNE 4.6 mph - N/A   Clear
3:53 AM 69.1 °F - 64.0 °F 84% 30.03 in 10.0 mi Calm Calm - N/A   Clear
4:53 AM 68.0 °F - 64.0 °F 87% 30.04 in 10.0 mi Calm Calm - N/A   Clear
5:53 AM 68.0 °F - 64.9 °F 90% 30.04 in 10.0 mi Calm Calm - N/A   Overcast
6:53 AM 68.0 °F - 64.9 °F 90% 30.06 in 10.0 mi Calm Calm - N/A   Overcast
7:53 AM 70.0 °F - 66.0 °F 87% 30.07 in 10.0 mi NW 3.5 mph - N/A   Overcast
8:53 AM 73.0 °F - 66.0 °F 79% 30.07 in 10.0 mi Calm Calm - N/A   Overcast
9:53 AM 75.0 °F - 66.0 °F 73% 30.07 in 10.0 mi Calm Calm - N/A   Mostly Cloudy
10:53 AM 77.0 °F - 66.0 °F 69% 30.07 in 10.0 mi Calm Calm - N/A   Mostly Cloudy
11:53 AM 79.0 °F - 66.0 °F 64% 30.06 in 10.0 mi Calm Calm - N/A   Mostly Cloudy
12:53 PM 82.0 °F 83.8 °F 64.9 °F 56% 30.05 in 10.0 mi Calm Calm - N/A   Mostly Cloudy
1:53 PM 81.0 °F 83.0 °F 66.0 °F 60% 30.04 in 10.0 mi Calm Calm - N/A   Mostly Cloudy
2:53 PM 82.9 °F 84.4 °F 64.0 °F 53% 30.02 in 10.0 mi Calm Calm - N/A   Overcast
3:53 PM 84.0 °F 85.4 °F 64.0 °F 51% 30.00 in 10.0 mi WNW 3.5 mph - N/A   Overcast
4:53 PM 82.9 °F 85.0 °F 66.0 °F 56% 30.00 in 10.0 mi North 3.5 mph - N/A   Overcast
5:53 PM 82.0 °F 83.8 °F 64.9 °F 56% 29.99 in 10.0 mi Calm Calm - N/A   Overcast
6:53 PM 79.0 °F - 69.1 °F 72% 29.99 in 10.0 mi Calm Calm - N/A   Overcast
7:53 PM 75.9 °F - 70.0 °F 82% 29.99 in 10.0 mi South 4.6 mph - N/A   Overcast
8:53 PM 75.0 °F - 70.0 °F 84% 29.99 in 10.0 mi Calm Calm - 0.00 in   Overcast
9:53 PM 75.0 °F - 70.0 °F 84% 29.99 in 10.0 mi South 4.6 mph - N/A   Overcast
10:53 PM 73.9 °F - 70.0 °F 87% 29.98 in 10.0 mi South 4.6 mph - N/A   Overcast
11:53 PM 73.9 °F - 69.1 °F 85% 29.97 in 10.0 mi Calm Calm - N/A   Mostly Cloudy